This is the latest recevied weather packets stored in our database for station/object N0HOT. If no packets are shown the sender has not sent any weather packets the latest 10 day(s).
| Time | Temp. | Humidity | Pressure | Rain* | Wind** | Luminosity | Snow |
|---|---|---|---|---|---|---|---|
| 1787925108 | 13.89° C | 88% | 1021.2 hPa | 0 mm | - | 42 W/m² | - |
| 1787924806 | 13.33° C | 88% | 1021.2 hPa | 0 mm | - | 48 W/m² | - |
| 1787924501 | 13.33° C | 88% | 1021.2 hPa | 0 mm | - | 35 W/m² | - |
| 1787924196 | 13.33° C | 88% | 1021.2 hPa | 0 mm | - | 34 W/m² | - |
| 1787923886 | 12.78° C | 88% | 1021.2 hPa | 0 mm | - | 42 W/m² | - |
| 1787923586 | 12.78° C | 88% | 1021.2 hPa | 0 mm | - | 35 W/m² | - |
| 1787923282 | 12.78° C | 88% | 1021.2 hPa | 0 mm | - | 32 W/m² | - |
| 1787922981 | 12.78° C | 88% | 1021.6 hPa | 0 mm | - | 45 W/m² | - |
| 1787922676 | 12.78° C | 88% | 1021.2 hPa | 0 mm | - | 33 W/m² | - |
| 1787922375 | 12.78° C | 87% | 1021.2 hPa | 0 mm | - | 26 W/m² | - |
| 1787922073 | 12.78° C | 88% | 1021.2 hPa | 0 mm | - | 29 W/m² | - |
| 1787921773 | 12.78° C | 88% | 1021.2 hPa | 0 mm | - | 39 W/m² | - |
| 1787921467 | 12.22° C | 88% | 1020.8 hPa | 0 mm | - | 36 W/m² | - |
| 1787921162 | 12.22° C | 87% | 1020.8 hPa | 0 mm | - | 28 W/m² | - |
| 1787920857 | 12.22° C | 87% | 1020.8 hPa | 0 mm | - | 23 W/m² | - |
| 1787920557 | 12.22° C | 87% | 1020.8 hPa | 0 mm | - | 26 W/m² | - |
| 1787920252 | 12.22° C | 87% | 1020.8 hPa | 0 mm | - | 25 W/m² | - |
| 1787919944 | 12.22° C | 87% | 1020.8 hPa | 0 mm | - | 22 W/m² | - |
| 1787919643 | 12.22° C | 87% | 1020.8 hPa | 0 mm | - | 19 W/m² | - |
| 1787919339 | 12.22° C | 87% | 1020.5 hPa | 0 mm | - | 15 W/m² | - |
| 1787919035 | 12.22° C | 87% | 1020.8 hPa | 0 mm | - | 15 W/m² | - |
| 1787918730 | 12.22° C | 87% | 1020.8 hPa | 0 mm | - | 12 W/m² | - |
| 1787918429 | 12.22° C | 87% | 1020.8 hPa | 0 mm | - | 10 W/m² | - |
| 1787918122 | 12.22° C | 87% | 1020.5 hPa | 0 mm | - | 9 W/m² | - |
| 1787917822 | 12.22° C | 87% | 1020.8 hPa | 0 mm | - | 6 W/m² | - |
* Rain latest hour (hover to see other rain measurements)
** Current wind speed in m/s (hover to see current wind gust speed)